{"data":{"norad_id":44927,"intl_designator":"2020-001P","name":"STARLINK-1114","alt_names":[],"object_type":"PAYLOAD","status":"ACTIVE","operator":null,"country":"US","launch_date":"2020-01-07","launch_site_code":"AFETR","launch_vehicle":null,"mission":null,"orbit_class":"UNKNOWN","rcs_meters":null,"size_class":null,"mass_kg":null,"dimensions":null,"purposes":["comms"],"wikipedia_slug":null,"has_3d_model":false,"image_url":null,"decayed_at":null,"tle_current":{"epoch":"2026-05-24T22:29:41.169120Z","epoch_age_seconds":76357,"freshness":"FRESH","line1":"1 44927U 20001P   26144.93728205  .00090577  00000+0  96813-3 0  9999","line2":"2 44927  53.0425 319.6095 0001180 346.0382  14.0599 15.63171070351970","mean_motion":15.6317107,"eccentricity":0.000118,"inclination_deg":53.0425,"raan_deg":319.6095,"arg_perigee_deg":346.0382,"mean_anomaly_deg":14.0599,"bstar":0.00096813,"rev_number":35197,"period_min":92.120435673109,"perigee_km":377.70657967867,"apogee_km":379.30114692241,"semimajor_km":6756.6408633005,"source":"CELESTRAK","updated_at":"2026-05-25T13:38:16.375347Z"}}}